Time,TemperatureF,DewpointF,PressureIn,WindDirection,WindDirectionDegrees,WindSpeedMPH,WindSpeedGustMPH,Humidity,HourlyPrecipIn,Conditions,Clouds,dailyrainin,SoftwareType,DateUTC
2013-01-28 00:03:00,33.0,-99.9,-100.00,North,-999,-999.0,-999.0,-999,0.00,,,0.04,,2013-01-28 06:03:00,
2013-01-28 00:42:00,32.0,-99.9,-100.00,North,-999,-999.0,-999.0,-999,0.00,,,0.04,,2013-01-28 06:42:00,
2013-01-28 00:52:00,32.0,-99.9,-100.00,North,-999,-999.0,-999.0,-999,0.00,,,0.04,,2013-01-28 06:52:00,
2013-01-28 01:03:00,32.0,-99.9,-100.00,North,-999,-999.0,-999.0,-999,0.00,,,0.04,,2013-01-28 07:03:00,
2013-01-28 01:11:00,32.0,-99.9,-100.00,North,-999,-999.0,-999.0,-999,0.00,,,0.04,,2013-01-28 07:11:00,
2013-01-28 01:42:00,35.0,-99.9,-100.00,North,-999,-999.0,-999.0,-999,0.00,,,0.04,,2013-01-28 07:42:00,
2013-01-28 01:52:00,35.0,-99.9,-100.00,North,-999,-999.0,-999.0,-999,0.00,,,0.04,,2013-01-28 07:52:00,
2013-01-28 02:01:00,35.0,-99.9,-100.00,North,-999,-999.0,-999.0,-999,0.00,,,0.04,,2013-01-28 08:01:00,
2013-01-28 02:11:00,35.0,-99.9,-100.00,North,-999,-999.0,-999.0,-999,0.00,,,0.04,,2013-01-28 08:11:00,
2013-01-28 02:43:00,34.0,-99.9,-100.00,North,-999,-999.0,-999.0,-999,0.00,,,0.04,,2013-01-28 08:43:00,
2013-01-28 02:53:00,34.0,-99.9,-100.00,North,-999,-999.0,-999.0,-999,0.00,,,0.04,,2013-01-28 08:53:00,
2013-01-28 03:02:00,34.0,-99.9,-100.00,North,-999,-999.0,-999.0,-999,0.00,,,0.04,,2013-01-28 09:02:00,
2013-01-28 03:12:00,34.0,-99.9,-100.00,North,-999,-999.0,-999.0,-999,0.00,,,0.04,,2013-01-28 09:12:00,
2013-01-28 03:42:00,31.0,-99.9,-100.00,North,-999,-999.0,-999.0,-999,0.00,,,-99.99,,2013-01-28 09:42:00,
2013-01-28 03:52:00,31.0,-99.9,-100.00,North,-999,-999.0,-999.0,-999,0.00,,,-99.99,,2013-01-28 09:52:00,
2013-01-28 04:02:00,31.0,-99.9,-100.00,North,-999,-999.0,-999.0,-999,0.00,,,-99.99,,2013-01-28 10:02:00,
2013-01-28 04:11:00,31.0,-99.9,-100.00,North,-999,-999.0,-999.0,-999,0.00,,,-99.99,,2013-01-28 10:11:00,
2013-01-28 04:42:00,31.0,-99.9,-100.00,North,-999,-999.0,-999.0,-999,0.00,,,0.01,,2013-01-28 10:42:00,
2013-01-28 04:52:00,31.0,-99.9,-100.00,North,-999,-999.0,-999.0,-999,0.00,,,0.01,,2013-01-28 10:52:00,
2013-01-28 05:03:00,31.0,-99.9,-100.00,North,-999,-999.0,-999.0,-999,0.00,,,0.01,,2013-01-28 11:03:00,
2013-01-28 05:12:00,31.0,-99.9,-100.00,North,-999,-999.0,-999.0,-999,0.00,,,0.01,,2013-01-28 11:12:00,
2013-01-28 05:33:00,32.0,-99.9,-100.00,North,-999,-999.0,-999.0,-999,0.00,,,-99.99,,2013-01-28 11:33:00,
2013-01-28 05:43:00,32.0,-99.9,-100.00,North,-999,-999.0,-999.0,-999,0.00,,,-99.99,,2013-01-28 11:43:00,
2013-01-28 05:53:00,32.0,-99.9,-100.00,North,-999,-999.0,-999.0,-999,0.00,,,-99.99,,2013-01-28 11:53:00,
2013-01-28 06:04:00,32.0,-99.9,-100.00,North,-999,-999.0,-999.0,-999,0.00,,,-99.99,,2013-01-28 12:04:00,
2013-01-28 06:12:00,32.0,-99.9,-100.00,North,-999,-999.0,-999.0,-999,0.00,,,-99.99,,2013-01-28 12:12:00,
2013-01-28 06:33:00,31.0,-99.9,-100.00,North,-999,-999.0,-999.0,-999,0.00,,,0.01,,2013-01-28 12:33:00,
2013-01-28 06:43:00,31.0,-99.9,-100.00,North,-999,-999.0,-999.0,-999,0.00,,,0.01,,2013-01-28 12:43:00,
2013-01-28 06:53:00,31.0,-99.9,-100.00,North,-999,-999.0,-999.0,-999,0.00,,,0.01,,2013-01-28 12:53:00,
2013-01-28 07:03:00,31.0,-99.9,-100.00,North,-999,-999.0,-999.0,-999,0.00,,,0.01,,2013-01-28 13:03:00,
2013-01-28 07:12:00,31.0,-99.9,-100.00,North,-999,-999.0,-999.0,-999,0.00,,,0.01,,2013-01-28 13:12:00,
2013-01-28 07:53:00,30.0,-99.9,-100.00,North,-999,-999.0,-999.0,-999,0.00,,,0.01,,2013-01-28 13:53:00,
2013-01-28 08:03:00,30.0,-99.9,-100.00,North,-999,-999.0,-999.0,-999,0.00,,,0.01,,2013-01-28 14:03:00,
2013-01-28 08:13:00,30.0,-99.9,-100.00,North,-999,-999.0,-999.0,-999,0.00,,,0.01,,2013-01-28 14:13:00,
2013-01-28 08:43:00,30.0,-99.9,-100.00,North,-999,-999.0,-999.0,-999,0.00,,,0.01,,2013-01-28 14:43:00,
2013-01-28 08:54:00,30.0,-99.9,-100.00,North,-999,-999.0,-999.0,-999,0.00,,,0.01,,2013-01-28 14:54:00,
2013-01-28 09:04:00,30.0,-99.9,-100.00,North,-999,-999.0,-999.0,-999,0.00,,,0.01,,2013-01-28 15:04:00,
2013-01-28 09:13:00,30.0,-99.9,-100.00,North,-999,-999.0,-999.0,-999,0.00,,,0.01,,2013-01-28 15:13:00,
2013-01-28 09:34:00,32.0,-99.9,-100.00,North,-999,-999.0,-999.0,-999,0.00,,,0.01,,2013-01-28 15:34:00,
2013-01-28 09:44:00,32.0,-99.9,-100.00,North,-999,-999.0,-999.0,-999,0.00,,,0.01,,2013-01-28 15:44:00,
2013-01-28 09:54:00,32.0,-99.9,-100.00,North,-999,-999.0,-999.0,-999,0.00,,,0.01,,2013-01-28 15:54:00,
2013-01-28 10:04:00,32.0,-99.9,-100.00,North,-999,-999.0,-999.0,-999,0.00,,,0.01,,2013-01-28 16:04:00,
2013-01-28 10:13:00,32.0,-99.9,-100.00,North,-999,-999.0,-999.0,-999,0.00,,,0.01,,2013-01-28 16:13:00,
2013-01-28 10:43:00,33.0,-99.9,-100.00,North,-999,-999.0,-999.0,-999,0.01,,,0.02,,2013-01-28 16:43:00,
2013-01-28 10:54:00,33.0,-99.9,-100.00,North,-999,-999.0,-999.0,-999,0.01,,,0.02,,2013-01-28 16:54:00,
2013-01-28 11:03:00,33.0,-99.9,-100.00,North,-999,-999.0,-999.0,-999,0.01,,,0.02,,2013-01-28 17:03:00,
2013-01-28 11:12:00,33.0,-99.9,-100.00,North,-999,-999.0,-999.0,-999,0.01,,,0.02,,2013-01-28 17:12:00,
2013-01-28 11:33:00,36.0,-99.9,-100.00,North,-999,-999.0,-999.0,-999,0.00,,,0.02,,2013-01-28 17:33:00,
2013-01-28 11:42:00,36.0,-99.9,-100.00,North,-999,-999.0,-999.0,-999,0.00,,,0.02,,2013-01-28 17:42:00,
2013-01-28 11:53:00,36.0,-99.9,-100.00,North,-999,-999.0,-999.0,-999,0.00,,,0.02,,2013-01-28 17:53:00,
2013-01-28 12:03:00,36.0,-99.9,-100.00,North,-999,-999.0,-999.0,-999,0.00,,,0.02,,2013-01-28 18:03:00,
2013-01-28 12:13:00,36.0,-99.9,-100.00,North,-999,-999.0,-999.0,-999,0.00,,,0.02,,2013-01-28 18:13:00,
2013-01-28 12:43:00,36.0,-99.9,-100.00,North,-999,-999.0,-999.0,-999,0.00,,,0.01,,2013-01-28 18:43:00,
2013-01-28 12:53:00,36.0,-99.9,-100.00,North,-999,-999.0,-999.0,-999,0.00,,,0.01,,2013-01-28 18:53:00,
2013-01-28 13:03:00,36.0,-99.9,-100.00,North,-999,-999.0,-999.0,-999,0.00,,,0.01,,2013-01-28 19:03:00,
2013-01-28 13:13:00,36.0,-99.9,-100.00,North,-999,-999.0,-999.0,-999,0.00,,,0.01,,2013-01-28 19:13:00,
2013-01-28 13:43:00,36.0,-99.9,-100.00,North,-999,-999.0,-999.0,-999,0.00,,,0.01,,2013-01-28 19:43:00,
2013-01-28 13:53:00,36.0,-99.9,-100.00,North,-999,-999.0,-999.0,-999,0.00,,,0.01,,2013-01-28 19:53:00,
2013-01-28 14:03:00,36.0,-99.9,-100.00,North,-999,-999.0,-999.0,-999,0.00,,,0.01,,2013-01-28 20:03:00,
2013-01-28 14:12:00,36.0,-99.9,-100.00,North,-999,-999.0,-999.0,-999,0.00,,,0.01,,2013-01-28 20:12:00,
2013-01-28 14:43:00,36.0,-99.9,-100.00,North,-999,-999.0,-999.0,-999,0.00,,,0.01,,2013-01-28 20:43:00,
2013-01-28 14:53:00,36.0,-99.9,-100.00,North,-999,-999.0,-999.0,-999,0.00,,,0.01,,2013-01-28 20:53:00,
2013-01-28 15:12:00,36.0,-99.9,-100.00,North,-999,-999.0,-999.0,-999,0.00,,,0.01,,2013-01-28 21:12:00,
2013-01-28 15:44:00,36.0,-99.9,-100.00,North,-999,-999.0,-999.0,-999,0.00,,,0.01,,2013-01-28 21:44:00,
2013-01-28 15:53:00,36.0,-99.9,-100.00,North,-999,-999.0,-999.0,-999,0.00,,,0.01,,2013-01-28 21:53:00,
2013-01-28 16:03:00,36.0,-99.9,-100.00,North,-999,-999.0,-999.0,-999,0.00,,,0.01,,2013-01-28 22:03:00,
2013-01-28 16:12:00,36.0,-99.9,-100.00,North,-999,-999.0,-999.0,-999,0.00,,,0.01,,2013-01-28 22:12:00,
2013-01-28 16:43:00,37.0,-99.9,-100.00,North,-999,-999.0,-999.0,-999,0.00,,,-99.99,,2013-01-28 22:43:00,
2013-01-28 16:53:00,37.0,-99.9,-100.00,North,-999,-999.0,-999.0,-999,0.00,,,-99.99,,2013-01-28 22:53:00,
2013-01-28 17:03:00,37.0,-99.9,-100.00,North,-999,-999.0,-999.0,-999,0.00,,,-99.99,,2013-01-28 23:03:00,
2013-01-28 17:12:00,37.0,-99.9,-100.00,North,-999,-999.0,-999.0,-999,0.00,,,-99.99,,2013-01-28 23:12:00,
2013-01-28 17:42:00,37.0,-99.9,-100.00,North,-999,-999.0,-999.0,-999,0.00,,,-99.99,,2013-01-28 23:42:00,
2013-01-28 17:53:00,37.0,-99.9,-100.00,North,-999,-999.0,-999.0,-999,0.00,,,-99.99,,2013-01-28 23:53:00,
2013-01-28 18:03:00,37.0,-99.9,-100.00,North,-999,-999.0,-999.0,-999,0.00,,,-99.99,,2013-01-29 00:03:00,
2013-01-28 18:13:00,37.0,-99.9,-100.00,North,-999,-999.0,-999.0,-999,0.00,,,-99.99,,2013-01-29 00:13:00,
2013-01-28 18:42:00,37.0,-99.9,-100.00,North,-999,-999.0,-999.0,-999,0.00,,,0.01,,2013-01-29 00:42:00,
2013-01-28 18:53:00,37.0,-99.9,-100.00,North,-999,-999.0,-999.0,-999,0.00,,,0.01,,2013-01-29 00:53:00,
2013-01-28 19:03:00,37.0,-99.9,-100.00,North,-999,-999.0,-999.0,-999,0.00,,,0.01,,2013-01-29 01:03:00,
2013-01-28 19:12:00,37.0,-99.9,-100.00,North,-999,-999.0,-999.0,-999,0.00,,,0.01,,2013-01-29 01:12:00,
2013-01-28 19:43:00,36.0,-99.9,-100.00,North,-999,-999.0,-999.0,-999,0.00,,,0.01,,2013-01-29 01:43:00,
2013-01-28 19:53:00,36.0,-99.9,-100.00,North,-999,-999.0,-999.0,-999,0.00,,,0.01,,2013-01-29 01:53:00,
2013-01-28 20:02:00,36.0,-99.9,-100.00,North,-999,-999.0,-999.0,-999,0.00,,,0.01,,2013-01-29 02:02:00,
2013-01-28 20:12:00,36.0,-99.9,-100.00,North,-999,-999.0,-999.0,-999,0.00,,,0.01,,2013-01-29 02:12:00,
2013-01-28 20:42:00,35.0,-99.9,-100.00,North,-999,-999.0,-999.0,-999,0.00,,,0.01,,2013-01-29 02:42:00,
2013-01-28 20:53:00,35.0,-99.9,-100.00,North,-999,-999.0,-999.0,-999,0.00,,,0.01,,2013-01-29 02:53:00,
2013-01-28 21:03:00,35.0,-99.9,-100.00,North,-999,-999.0,-999.0,-999,0.00,,,0.01,,2013-01-29 03:03:00,
2013-01-28 21:12:00,35.0,-99.9,-100.00,North,-999,-999.0,-999.0,-999,0.00,,,0.01,,2013-01-29 03:12:00,
2013-01-28 21:32:00,35.0,-99.9,-100.00,North,-999,-999.0,-999.0,-999,0.00,,,0.01,,2013-01-29 03:32:00,
2013-01-28 21:42:00,35.0,-99.9,-100.00,North,-999,-999.0,-999.0,-999,0.00,,,0.01,,2013-01-29 03:42:00,
2013-01-28 21:53:00,35.0,-99.9,-100.00,North,-999,-999.0,-999.0,-999,0.00,,,0.01,,2013-01-29 03:53:00,
2013-01-28 22:03:00,35.0,-99.9,-100.00,North,-999,-999.0,-999.0,-999,0.00,,,0.01,,2013-01-29 04:03:00,
2013-01-28 22:42:00,35.0,-99.9,-100.00,North,-999,-999.0,-999.0,-999,0.00,,,0.01,,2013-01-29 04:42:00,
2013-01-28 22:52:00,35.0,-99.9,-100.00,North,-999,-999.0,-999.0,-999,0.00,,,0.01,,2013-01-29 04:52:00,
2013-01-28 23:04:00,35.0,-99.9,-100.00,North,-999,-999.0,-999.0,-999,0.00,,,0.01,,2013-01-29 05:04:00,
2013-01-28 23:13:00,35.0,-99.9,-100.00,North,-999,-999.0,-999.0,-999,0.00,,,0.01,,2013-01-29 05:13:00,
2013-01-28 23:32:00,34.0,-99.9,-100.00,North,-999,-999.0,-999.0,-999,0.00,,,0.01,,2013-01-29 05:32:00,
2013-01-28 23:43:00,34.0,-99.9,-100.00,North,-999,-999.0,-999.0,-999,0.00,,,0.01,,2013-01-29 05:43:00,
2013-01-28 23:52:00,34.0,-99.9,-100.00,North,-999,-999.0,-999.0,-999,0.00,,,0.01,,2013-01-29 05:52:00,